Las Cruces, NM

2:55 AM MDT on June 29, 2017 (GMT -0600)
Las Cruces International

Weather History for KLRU - September, 2014

Change the Weather History Date:

Sunday, September 28, 2014

  Actual Average Record
Temperature  
Mean Temperature 72 °F -  
Max Temperature 83 °F 81 °F 95 °F (1998)
Min Temperature 60 °F 58 °F 48 °F (2001)
Cooling Degree Days 6    
Growing Degree Days 22 (Base 50)    
Moisture  
Dew Point 54 °F    
Average Humidity 58    
Maximum Humidity 83    
Minimum Humidity 30    
Precipitation  
Precipitation 0.00 in - - ()
Sea Level Pressure  
Sea Level Pressure 30.07 in    
Wind  
Wind Speed 7 mph (SSE)    
Max Wind Speed 12 mph    
Max Gust Speed 17 mph    
Visibility 10 miles    
Events      
Averages and records for this station are not official NWS values.
T = Trace of Precipitation, MM = Missing Value Source: NWS Daily Summary

Daily Weather History Graph

Daily Weather History Graph

Search for Another Location

Airport or City:

Trip Planner

Search our weather history database for the weather conditions in past years. The results will help you decide how hot, cold, wet, or windy it might be!

Date:

Astronomy

Sep. 28, 2014 Rise Set
Actual Time 6:59 AM MDT 6:56 PM MDT
Civil Twilight 6:35 AM MDT 7:20 PM MDT
Nautical Twilight 6:06 AM MDT 7:49 PM MDT
Astronomical Twilight 5:38 AM MDT 8:17 PM MDT
Moon 11:02 AM MDT (9/28) 9:56 PM MDT (9/28)
Length of Visible Light 12h 45m
Length of Day
11h 56m
Waxing Crescent, 19% of the Moon is Illuminated
Sep 28
Waxing Crescent
Oct 1
First Quarter
Oct 8
Full
Oct 15
Last Quarter
Oct 23
New

Hourly Weather History & Observations

Time (MDT) Temp. Dew Point Humidity Pressure Visibility Wind Dir Wind Speed Gust Speed Precip Events Conditions
12:15 AM 65.1 °F 54.3 °F 68% 30.06 in 10.0 mi ESE 6.9 mph - N/A   Clear
12:35 AM 64.8 °F 54.5 °F 69% 30.06 in 10.0 mi SE 6.9 mph - N/A   Clear
12:55 AM 64.4 °F 54.9 °F 71% 30.05 in 10.0 mi SE 5.8 mph - N/A   Clear
1:15 AM 64.2 °F 55.4 °F 73% 30.06 in 10.0 mi SE 6.9 mph - N/A   Clear
1:35 AM 64.4 °F 55.6 °F 73% 30.06 in 10.0 mi SE 6.9 mph - N/A   Clear
1:55 AM 64.6 °F 55.8 °F 73% 30.06 in 10.0 mi SE 8.1 mph - N/A   Scattered Clouds
2:15 AM 64.4 °F 55.8 °F 73% 30.06 in 10.0 mi SE 6.9 mph - N/A   Scattered Clouds
2:35 AM 64.4 °F 55.8 °F 73% 30.06 in 10.0 mi SE 5.8 mph - N/A   Mostly Cloudy
2:55 AM 63.5 °F 55.8 °F 76% 30.06 in 10.0 mi SE 5.8 mph - N/A   Scattered Clouds
3:15 AM 63.3 °F 55.8 °F 76% 30.06 in 10.0 mi SE 6.9 mph - N/A   Scattered Clouds
3:35 AM 63.5 °F 55.9 °F 76% 30.06 in 10.0 mi SE 5.8 mph - N/A   Mostly Cloudy
3:55 AM 63.5 °F 56.1 °F 77% 30.06 in 10.0 mi SSE 4.6 mph - N/A   Overcast
4:15 AM 62.6 °F 55.9 °F 79% 30.05 in 10.0 mi SSE 5.8 mph - N/A   Mostly Cloudy
4:35 AM 61.9 °F 55.8 °F 80% 30.05 in 10.0 mi SE 5.8 mph - N/A   Clear
4:55 AM 61.7 °F 55.8 °F 81% 30.05 in 10.0 mi SE 5.8 mph - N/A   Clear
5:15 AM 61.7 °F 55.8 °F 81% 30.05 in 10.0 mi SSE 5.8 mph - N/A   Clear
5:35 AM 61.7 °F 55.8 °F 81% 30.05 in 10.0 mi SSE 5.8 mph - N/A   Clear
5:55 AM 61.5 °F 55.6 °F 81% 30.06 in 10.0 mi South 5.8 mph - N/A   Clear
6:15 AM 61.3 °F 55.6 °F 81% 30.06 in 10.0 mi SSE 6.9 mph - N/A   Clear
6:35 AM 61.3 °F 55.6 °F 81% 30.07 in 10.0 mi SSE 8.1 mph - N/A   Clear
6:55 AM 61.0 °F 55.6 °F 82% 30.07 in 10.0 mi SSE 6.9 mph - N/A   Clear
7:15 AM 60.8 °F 55.6 °F 83% 30.07 in 10.0 mi SSE 6.9 mph - N/A   Clear
7:35 AM 61.5 °F 55.9 °F 82% 30.08 in 10.0 mi SSE 5.8 mph - N/A   Clear
7:55 AM 63.0 °F 56.3 °F 79% 30.09 in 10.0 mi SSE 6.9 mph - N/A   Clear
8:15 AM 64.6 °F 56.3 °F 74% 30.10 in 10.0 mi SSE 5.8 mph - N/A   Clear
8:35 AM 65.7 °F 56.1 °F 71% 30.11 in 10.0 mi SE 5.8 mph - N/A   Clear
8:55 AM 67.1 °F 56.3 °F 68% 30.11 in 10.0 mi SE 5.8 mph - N/A   Clear
9:15 AM 68.7 °F 56.5 °F 65% 30.11 in 10.0 mi SE 6.9 mph - N/A   Clear
9:35 AM 69.8 °F 56.3 °F 62% 30.12 in 10.0 mi SE 8.1 mph - N/A   Clear
9:55 AM 70.5 °F 56.3 °F 61% 30.12 in 10.0 mi SSE 10.4 mph - N/A   Clear
10:15 AM 71.6 °F 56.3 °F 58% 30.12 in 10.0 mi SSE 10.4 mph 16.1 mph N/A   Clear
10:35 AM 73.0 °F 56.7 °F 56% 30.12 in 10.0 mi SSE 11.5 mph - N/A   Clear
10:55 AM 73.9 °F 56.3 °F 54% 30.12 in 10.0 mi SSE 10.4 mph - N/A   Clear
11:15 AM 75.0 °F 56.3 °F 52% 30.12 in 10.0 mi SE 8.1 mph - N/A   Clear
11:35 AM 76.6 °F 56.1 °F 49% 30.11 in 10.0 mi South 10.4 mph - N/A   Clear
11:55 AM 77.0 °F 55.6 °F 47% 30.11 in 10.0 mi South 5.8 mph - N/A   Scattered Clouds
12:15 PM 78.1 °F 55.4 °F 45% 30.10 in 10.0 mi SSW 6.9 mph - N/A   Scattered Clouds
12:35 PM 79.0 °F 55.4 °F 44% 30.10 in 10.0 mi SSW 4.6 mph - N/A   Scattered Clouds
12:55 PM 78.8 °F 55.4 °F 44% 30.09 in 10.0 mi South 4.6 mph - N/A   Scattered Clouds
1:15 PM 77.4 °F 55.4 °F 47% 30.09 in 10.0 mi SW 8.1 mph - N/A   Mostly Cloudy
1:35 PM 77.9 °F 55.4 °F 46% 30.08 in 10.0 mi WSW 6.9 mph - N/A   Scattered Clouds
1:55 PM 79.2 °F 54.3 °F 42% 30.08 in 10.0 mi SW 8.1 mph - N/A   Mostly Cloudy
2:15 PM 81.7 °F 52.0 °F 36% 30.07 in 10.0 mi SW 11.5 mph 16.1 mph N/A   Scattered Clouds
2:35 PM 82.4 °F 52.2 °F 35% 30.07 in 10.0 mi WSW 6.9 mph 17.3 mph N/A   Clear
2:55 PM 82.0 °F 51.3 °F 34% 30.06 in 10.0 mi SW 8.1 mph - N/A   Clear
3:15 PM 81.5 °F 51.4 °F 35% 30.06 in 10.0 mi South 9.2 mph - N/A   Scattered Clouds
3:35 PM 83.1 °F 51.8 °F 34% 30.05 in 10.0 mi South 8.1 mph - N/A   Scattered Clouds
3:55 PM 82.9 °F 51.3 °F 33% 30.05 in 10.0 mi South 9.2 mph - N/A   Scattered Clouds
4:15 PM 83.3 °F 51.1 °F 33% 30.05 in 10.0 mi South 5.8 mph - N/A   Clear
4:35 PM 83.7 °F 48.9 °F 30% 30.04 in 10.0 mi SSW 11.5 mph - N/A   Scattered Clouds
4:55 PM 82.6 °F 49.6 °F 32% 30.04 in 10.0 mi SSW 4.6 mph - N/A   Clear
5:15 PM 82.8 °F 48.0 °F 30% 30.04 in 10.0 mi SSW 6.9 mph 16.1 mph N/A   Clear
5:35 PM 83.1 °F 49.5 °F 31% 30.03 in 10.0 mi SSW 9.2 mph - N/A   Scattered Clouds
5:55 PM 81.7 °F 49.1 °F 32% 30.04 in 10.0 mi SSW 9.2 mph - N/A   Clear
6:15 PM 81.0 °F 51.4 °F 36% 30.04 in 10.0 mi South 5.8 mph - N/A   Clear
6:35 PM 79.9 °F 51.8 °F 38% 30.04 in 10.0 mi SSE 8.1 mph - N/A   Scattered Clouds
6:55 PM 78.1 °F 52.3 °F 41% 30.04 in 10.0 mi SE 4.6 mph - N/A   Scattered Clouds
7:15 PM 76.3 °F 53.2 °F 45% 30.04 in 10.0 mi SSE 4.6 mph - N/A   Scattered Clouds
7:35 PM 74.5 °F 53.8 °F 48% 30.04 in 10.0 mi SSE 4.6 mph - N/A   Clear
7:55 PM 74.5 °F 53.6 °F 48% 30.04 in 10.0 mi South 3.5 mph - N/A   Clear
8:15 PM 73.4 °F 53.4 °F 49% 30.05 in 10.0 mi SE 4.6 mph - N/A   Clear
8:35 PM 73.0 °F 54.0 °F 51% 30.05 in 10.0 mi SSE 4.6 mph - N/A   Clear
8:55 PM 72.5 °F 53.8 °F 52% 30.06 in 10.0 mi SSE 5.8 mph - N/A   Clear
9:15 PM 72.0 °F 53.6 °F 52% 30.06 in 10.0 mi SSE 5.8 mph - N/A   Clear
9:35 PM 71.6 °F 53.6 °F 53% 30.06 in 10.0 mi SSE 6.9 mph - N/A   Clear
9:55 PM 70.9 °F 53.6 °F 54% 30.07 in 10.0 mi SE 5.8 mph - N/A   Clear
10:15 PM 70.0 °F 54.0 °F 57% 30.07 in 10.0 mi SSE 5.8 mph - N/A   Clear
10:35 PM 69.8 °F 54.0 °F 57% 30.07 in 10.0 mi South 5.8 mph - N/A   Clear
10:55 PM 70.5 °F 53.6 °F 55% 30.07 in 10.0 mi South 4.6 mph - N/A   Scattered Clouds
11:15 PM 70.3 °F 53.6 °F 55% 30.07 in 10.0 mi SE 5.8 mph - N/A   Mostly Cloudy
11:35 PM 69.8 °F 55.4 °F 60% 30.07 in 10.0 mi SE 8.1 mph - N/A   Overcast
11:55 PM 69.8 °F 56.8 °F 63% 30.07 in 10.0 mi SSE 6.9 mph - N/A   Mostly Cloudy